Theta_e
313 314 317 319 321 321 321 321 321 322 321 310 309 309 308 308 307 308 308 307 306 300 301 306 305 304 304 303 303 303 303 303 303 302 302 302 300 300 299 300 299 298 297
325 325 324 323 323 322 322 321 319 318 311 310 310 310 309 308 307 307 306 306 306 304 300 299 302 302 304 303 303 302 304 306 304 304 304 302 302 302 301 300 300 300 300
325 325 324 323 323 322 321 320 317 312 310 309 309 309 309 308 307 304 305 305 305 303 302 302 300 300 302 302 303 303 305 306 305 306 304 302 304 304 303 302 302 302 301
323 324 324 324 323 322 321 320 315 310 311 310 310 309 308 307 307 306 304 304 303 302 302 301 301 300 297 297 297 296 296 297 299 303 305 305 304 304 304 305 304 303 302
325 325 325 324 323 321 319 316 312 312 311 311 310 309 309 309 307 305 304 304 303 303 302 302 302 301 301 300 299 298 296 294 294 301 302 304 304 303 304 303 304 304 303
324 323 324 324 322 319 316 312 312 312 312 312 311 311 311 311 309 306 306 305 304 304 303 302 302 302 301 300 299 299 297 296 294 295 300 300 301 301 300 301 301 302 301
325 324 324 323 321 317 316 312 312 312 312 312 312 313 313 311 310 308 305 305 305 304 303 303 302 302 301 300 300 300 298 297 296 294 293 294 296 297 298 299 299 300 300
324 324 324 322 320 316 315 313 312 313 314 313 311 311 311 310 309 308 305 304 304 304 303 303 302 302 301 301 300 299 298 298 297 296 293 292 292 293 295 297 297 298 298
322 323 323 322 319 316 315 313 313 314 314 313 312 311 309 308 307 305 305 305 304 303 302 302 302 302 301 301 300 299 298 298 297 296 294 292 291 294 294 295 295 296 296
323 324 323 322 318 316 315 313 313 313 313 312 311 310 307 306 305 305 304 304 304 304 303 302 301 300 300 300 300 299 298 297 296 295 293 292 290 291 293 293 293 294 294
323 324 322 320 318 316 314 313 313 313 313 312 311 310 306 305 304 303 302 302 302 303 302 300 299 298 299 299 299 298 298 297 296 294 293 290 290 290 291 292 292 292 293
323 323 321 319 317 316 314 313 313 312 311 311 311 307 304 303 302 302 302 302 302 301 300 299 298 297 298 299 298 298 297 296 295 294 293 291 290 289 289 288 289 290 291
324 322 320 318 317 315 313 313 313 311 310 310 309 307 304 302 301 301 301 301 300 299 299 298 297 297 297 297 298 297 296 296 295 294 292 290 290 289 288 287 285 286 288
322 323 321 317 316 315 314 313 311 309 309 308 306 304 302 301 300 301 301 300 299 298 298 297 297 296 296 296 296 297 296 295 294 293 291 291 290 289 288 285 283 284 285
321 323 320 317 315 315 314 312 309 309 309 308 306 303 302 301 301 301 300 299 298 298 298 297 296 296 295 295 295 295 295 294 294 293 292 291 289 289 288 286 284 283 283
322 320 319 317 315 314 313 309 309 309 308 305 303 303 301 301 301 300 299 298 298 298 297 297 296 296 295 295 295 294 294 293 293 292 291 290 289 288 287 286 284 283 283
322 319 318 316 315 314 311 308 309 308 303 303 302 302 301 301 300 300 299 298 298 298 297 297 296 296 295 295 294 294 293 293 293 293 291 289 289 288 287 285 284 284 283
322 319 317 316 314 312 310 309 309 304 304 302 302 301 301 301 300 299 299 298 298 297 297 297 296 295 295 295 294 293 293 292 292 292 290 289 288 287 286 285 285 285 284
321 319 316 314 312 310 309 308 305 304 302 302 301 301 300 299 298 298 297 297 297 297 297 296 295 295 294 294 293 292 292 290 290 291 290 289 287 286 286 286 286 285 285
319 316 310 310 310 309 307 305 302 301 301 301 300 298 298 297 296 296 296 296 296 296 296 295 294 293 293 292 291 291 290 289 290 290 289 289 287 286 286 286 286 285 285
315 311 310 308 309 306 302 300 300 301 300 298 297 296 295 295 295 295 295 294 294 294 294 293 293 293 291 290 290 290 290 290 290 289 289 287 287 286 286 286 285 285 285
310 310 308 307 304 301 301 301 301 300 298 294 291 291 291 292 292 293 293 293 293 293 293 293 293 292 292 291 290 289 289 290 289 288 287 287 286 286 286 285 284 285 285
309 306 305 301 301 302 302 301 299 296 293 291 290 290 291 292 293 293 293 293 293 293 293 293 292 292 291 291 289 288 288 289 288 287 287 286 286 285 284 284 285 285 285
305 303 302 302 302 300 298 297 296 294 293 292 291 292 292 292 292 292 292 292 292 292 291 291 291 291 290 290 289 288 288 288 287 286 286 285 284 283 284 285 285 284 283
303 303 302 300 298 297 296 295 295 294 293 292 291 289 287 286 287 287 287 286 286 285 285 288 289 289 289 289 289 288 288 287 287 286 285 284 284 284 285 284 284 284 283
301 300 297 296 295 295 295 295 293 291 290 288 286 285 285 284 284 284 286 286 286 286 286 286 286 287 288 289 288 287 287 287 286 285 285 284 284 284 284 284 283 284 283
Wind_Speed
17 18 15 17 13 11 14 12 8 8 5 3 1 1 4 5 4 5 9 8 8 3 4 6 8 10 12 12 11 10 10 12 12 14 14 15 18 16 14 17 19 16 15
15 16 14 17 19 16 11 9 9 5 3 2 0 2 2 3 4 6 7 9 8 4 4 6 9 9 10 11 13 12 10 11 16 16 18 19 16 16 18 16 16 16 18
20 20 20 17 14 12 13 14 12 11 8 6 4 6 6 6 7 2 3 6 8 6 7 9 6 10 12 13 13 12 10 9 10 14 17 17 16 17 18 17 18 17 18
20 16 18 15 15 19 20 15 12 8 6 5 4 3 4 6 8 6 3 6 3 3 5 9 12 10 10 12 13 16 16 15 13 9 14 14 16 15 16 16 17 19 19
16 15 14 17 21 19 16 12 12 7 8 7 4 8 9 5 10 4 11 9 8 9 7 7 10 12 10 13 14 14 13 14 13 12 11 12 16 15 14 15 15 17 17
16 17 16 21 18 15 16 13 13 14 7 10 7 6 12 12 8 12 11 9 6 12 13 8 14 11 10 13 14 17 13 12 12 13 12 14 17 18 19 18 18 17 22
19 19 19 19 18 15 16 18 16 14 12 9 6 3 9 16 17 12 10 10 10 12 10 15 16 8 12 13 12 13 21 22 18 17 16 16 17 17 17 18 22 20 20
20 22 20 19 20 20 20 18 16 10 8 11 6 6 4 7 14 11 10 9 12 14 15 12 13 15 18 15 17 18 21 21 21 18 18 19 19 20 20 18 18 20 21
23 22 21 20 20 21 22 19 17 14 7 9 12 5 3 5 10 5 5 10 13 17 17 16 16 18 15 18 21 21 20 21 22 24 22 22 22 20 19 20 21 22 22
22 23 20 23 22 23 22 19 17 15 18 9 7 9 9 13 9 8 12 13 13 16 15 15 16 18 18 18 22 22 26 26 26 24 25 26 25 23 21 21 23 24 25
25 27 27 26 26 23 19 19 19 21 18 14 12 13 10 12 12 15 20 17 15 15 15 13 17 18 21 25 23 25 25 25 29 30 30 31 27 26 26 25 25 25 26
26 25 28 25 26 24 23 24 25 23 17 15 15 11 14 13 11 16 19 20 18 18 21 20 20 20 21 23 22 26 27 30 32 32 33 34 32 28 29 30 28 26 27
26 28 28 29 28 25 28 29 26 19 14 14 14 13 12 13 14 18 20 21 21 20 21 22 23 20 21 25 28 29 31 32 33 34 37 37 30 35 38 36 29 26 25
28 27 28 32 28 28 31 29 21 14 13 12 13 15 16 16 15 16 19 19 23 23 21 21 19 18 18 17 21 26 30 32 34 36 34 31 33 37 35 32 28 27 26
23 24 28 31 29 31 30 25 17 9 12 17 15 16 17 15 15 18 20 20 21 26 27 23 23 22 24 25 26 26 29 32 34 35 30 31 34 35 36 34 32 29 28
19 25 29 31 32 30 30 28 12 9 16 10 14 15 15 17 18 20 21 22 22 25 31 28 28 26 25 27 26 31 31 31 30 30 32 27 30 34 35 37 36 30 29
23 26 29 31 30 29 24 25 19 21 8 15 17 18 20 21 23 24 24 25 26 26 31 35 32 31 32 31 33 33 30 31 33 32 28 28 31 34 35 31 29 29 26
27 33 31 29 28 20 15 18 20 18 14 12 18 19 20 20 22 23 25 27 28 29 31 37 36 32 30 27 29 28 31 30 33 30 27 30 31 32 26 28 32 25 22
28 29 25 23 21 18 14 17 17 12 12 15 18 20 21 23 24 25 26 28 29 30 31 34 39 37 33 29 30 32 33 33 32 28 27 25 22 24 28 28 26 23 25
25 23 11 13 18 21 13 15 10 13 18 19 17 19 22 25 27 27 28 29 29 30 31 32 34 33 31 32 32 33 38 34 33 26 25 25 24 26 26 24 22 24 27
21 16 9 15 18 16 11 10 16 20 20 19 21 23 23 21 24 27 30 34 35 37 38 40 41 42 37 35 35 35 31 34 24 19 21 21 26 23 21 21 22 24 25
20 11 12 15 13 8 11 18 21 22 22 23 23 22 23 24 27 27 29 32 33 33 37 40 40 38 37 37 34 33 30 21 20 17 20 22 21 24 25 27 24 23 26
16 14 13 12 12 15 17 20 20 20 21 21 22 23 24 25 25 29 31 32 33 33 33 35 38 39 38 36 32 28 26 21 21 22 21 27 28 31 32 24 22 24 25
16 13 10 14 17 14 13 17 20 20 22 23 23 23 26 29 30 30 35 39 42 43 39 32 34 36 37 33 26 25 26 24 23 26 27 33 34 29 22 21 22 24 25
11 14 14 11 10 13 15 17 20 23 25 27 29 30 29 29 30 31 35 38 40 41 40 42 40 38 37 38 32 32 31 27 34 38 33 28 25 23 23 22 21 21 23
12 11 12 15 15 17 19 21 24 26 28 29 27 27 26 27 28 26 27 31 37 38 37 34 34 35 30 29 27 30 30 32 34 33 26 22 22 21 24 22 17 13 21
Wind_Direction
174 175 166 160 152 170 166 191 185 190 194 194 180 44 5 7 97 271 310 331 341 317 238 269 298 311 316 323 329 336 336 337 347 347 353 352 352 355 347 346 348 350 349
165 163 172 160 174 192 187 184 176 190 155 238 188 6 352 309 320 174 292 322 328 338 307 285 264 277 292 313 320 328 339 336 333 335 337 340 346 344 337 334 338 341 342
193 185 183 189 181 161 179 191 190 187 201 187 356 7 357 328 298 299 149 309 314 327 325 326 292 293 283 282 286 294 304 313 322 313 319 331 332 329 331 326 326 326 327
199 195 194 186 169 189 202 204 201 185 185 167 197 239 257 288 294 317 274 176 226 291 310 306 311 312 294 288 293 290 286 285 290 298 317 315 311 307 304 301 304 311 315
197 203 187 178 201 205 198 195 186 182 187 185 259 294 297 266 281 250 264 265 280 289 300 301 305 313 323 316 317 315 303 290 287 294 283 290 305 306 307 304 304 301 297
203 193 187 205 207 197 202 184 198 187 186 201 200 239 274 284 265 252 265 261 273 287 310 274 280 304 304 312 315 314 311 305 294 290 292 279 281 285 283 294 295 290 296
205 192 205 218 197 199 210 198 205 201 206 237 276 312 275 276 266 266 269 265 244 250 267 287 298 298 288 295 311 301 304 305 300 295 287 289 291 294 296 296 290 296 294
207 199 203 220 191 201 214 214 206 199 191 248 229 269 301 226 249 286 288 284 259 265 282 277 280 267 291 292 283 289 294 293 296 296 299 294 291 289 291 299 299 297 296
215 215 199 222 203 208 224 217 200 197 213 245 275 270 258 251 291 313 285 261 253 270 282 294 269 278 280 285 286 293 286 288 290 294 299 301 301 299 300 299 297 294 290
214 204 201 223 216 210 227 222 213 212 207 195 224 278 276 267 277 275 255 251 293 300 292 292 294 290 279 275 280 281 286 290 294 296 300 300 300 298 300 300 298 295 290
217 216 220 220 220 216 218 226 216 216 226 231 260 258 236 254 272 275 281 291 280 274 276 269 288 290 274 276 275 283 280 285 293 299 301 301 300 297 299 300 298 294 290
222 218 214 216 220 222 208 219 219 228 231 258 267 248 244 255 261 272 279 282 283 272 272 280 280 282 291 280 272 270 277 281 289 294 302 300 297 298 302 302 298 293 289
226 218 220 220 224 220 213 223 225 232 246 264 252 262 248 249 261 268 273 279 283 281 276 275 282 288 291 288 278 271 273 278 285 290 297 301 299 307 306 305 299 293 290
235 235 232 221 222 213 218 223 224 228 245 249 262 264 261 265 256 264 269 276 284 284 288 283 279 282 282 293 289 278 275 278 282 286 294 295 303 307 308 306 299 293 291
238 240 228 220 214 215 224 224 216 228 257 294 295 270 275 277 268 261 261 265 274 286 284 286 285 281 278 277 285 292 288 285 282 285 287 293 300 303 306 308 306 298 295
237 221 220 214 212 219 224 213 231 276 286 271 264 272 279 278 271 264 267 271 273 274 280 283 287 291 287 285 285 279 287 286 283 282 283 294 295 297 304 308 305 302 294
228 217 224 206 209 219 217 221 247 267 231 239 260 263 266 270 271 266 268 267 269 272 277 282 283 284 284 283 286 286 278 277 282 279 279 286 292 294 304 303 310 307 299
227 220 208 215 216 227 222 242 251 226 246 249 255 268 271 269 269 274 275 275 275 275 276 281 287 288 288 290 288 282 281 283 288 280 275 287 288 296 295 303 311 309 312
219 211 214 217 213 215 230 254 242 246 254 265 259 259 265 268 271 273 275 276 277 278 279 281 286 288 291 291 281 283 284 292 290 279 281 287 284 290 299 304 304 309 314
215 205 188 201 208 223 245 233 230 246 253 257 260 263 265 268 273 277 280 278 278 279 278 279 282 286 289 290 295 295 296 292 281 275 272 263 275 286 292 295 299 307 308
206 196 213 203 213 230 219 215 231 244 245 245 253 262 268 273 277 278 281 284 287 286 284 282 281 286 284 289 292 294 290 284 277 272 281 282 288 288 286 284 291 296 298
193 210 200 203 216 200 224 239 247 253 254 266 273 276 277 275 280 285 285 284 285 289 288 284 280 274 280 285 288 293 289 279 286 282 285 279 279 278 278 284 292 291 292
202 191 192 193 199 230 240 246 254 260 267 274 282 286 288 290 289 286 288 286 282 283 283 286 278 279 283 284 283 285 280 277 273 275 273 275 277 282 289 285 287 287 287
187 187 191 210 230 238 245 255 263 272 279 283 287 286 282 281 278 278 278 279 280 282 287 287 282 286 286 281 271 271 273 273 273 279 279 284 291 287 289 285 285 287 296
185 200 213 215 218 234 246 257 267 275 282 285 288 288 286 285 287 290 288 288 289 290 289 284 284 284 283 279 269 273 269 267 278 283 287 284 284 289 287 283 285 292 289
198 189 196 207 212 235 245 256 269 277 282 287 290 294 297 298 300 299 296 299 298 299 301 300 289 288 287 277 261 267 267 266 273 279 286 270 275 284 296 288 288 257 283